This is the latest recevied weather packets stored in our database for station/object WE0DX-1. If no packets are shown the sender has not sent any weather packets the latest 10 day(s).
| Time | Temp. | Humidity | Pressure | Rain* | Wind** | Luminosity | Snow |
|---|---|---|---|---|---|---|---|
| 1777919436 | 26.67° C | 44% | 1002 hPa | 0 mm | - | 731 W/m² | - |
| 1777919132 | 26.11° C | 45% | 1002 hPa | 0 mm | - | 730 W/m² | - |
| 1777918830 | 26.11° C | 46% | 1001.8 hPa | 0 mm | - | 745 W/m² | - |
| 1777918527 | 26.11° C | 47% | 1002.3 hPa | 0 mm | - | 748 W/m² | - |
| 1777918226 | 26.11° C | 45% | 1001.9 hPa | 0 mm | - | 742 W/m² | - |
| 1777917924 | 26.11° C | 45% | 1002.2 hPa | 0 mm | - | 741 W/m² | - |
| 1777917623 | 26.11° C | 45% | 1002.2 hPa | 0 mm | - | 745 W/m² | - |
| 1777917319 | 25.56° C | 46% | 1002.4 hPa | 0 mm | - | 759 W/m² | - |
| 1777917016 | 25.56° C | 46% | 1002.5 hPa | 0 mm | - | 766 W/m² | - |
| 1777916714 | 25.56° C | 46% | 1002.2 hPa | 0 mm | - | 752 W/m² | - |
| 1777916411 | 25° C | 46% | 1002.4 hPa | 0 mm | - | 724 W/m² | - |
| 1777916107 | 25° C | 48% | 1002.6 hPa | 0 mm | - | 729 W/m² | - |
| 1777915805 | 25° C | 47% | 1002.5 hPa | 0 mm | - | 714 W/m² | - |
| 1777915501 | 25° C | 46% | 1002.5 hPa | 0 mm | - | 764 W/m² | - |
| 1777915197 | 25° C | 46% | 1002.7 hPa | 0 mm | - | 819 W/m² | - |
| 1777914894 | 25° C | 47% | 1002.8 hPa | 0 mm | - | 804 W/m² | - |
| 1777914591 | 24.44° C | 47% | 1002.6 hPa | 0 mm | - | 794 W/m² | - |
| 1777914287 | 23.89° C | 48% | 1002.7 hPa | 0 mm | - | 802 W/m² | - |
| 1777913985 | 23.89° C | 48% | 1002.6 hPa | 0 mm | - | 800 W/m² | - |
| 1777913681 | 23.89° C | 48% | 1002.7 hPa | 0 mm | - | 834 W/m² | - |
| 1777913378 | 23.89° C | 47% | 1002.7 hPa | 0 mm | - | 839 W/m² | - |
| 1777913074 | 23.89° C | 48% | 1002.7 hPa | 0 mm | - | 858 W/m² | - |
| 1777912771 | 23.89° C | 48% | 1002.9 hPa | 0 mm | - | 887 W/m² | - |
| 1777912466 | 23.33° C | 49% | 1002.8 hPa | 0 mm | - | 860 W/m² | - |
| 1777912163 | 23.33° C | 49% | 1002.7 hPa | 0 mm | - | 819 W/m² | - |
* Rain latest hour (hover to see other rain measurements)
** Current wind speed in m/s (hover to see current wind gust speed)